Change the Weather History Date:

Sunday, June 16, 2013

  Actual Average Record
Temperature  
Mean Temperature 36 °F -  
Max Temperature 39 °F - - ()
Min Temperature 32 °F - - ()
Degree Days  
Heating Degree Days 30    
Moisture  
Dew Point -    
Average Humidity    
Maximum Humidity    
Minimum Humidity    
Precipitation  
Precipitation 0.00 in - - ()
Sea Level Pressure  
Sea Level Pressure 29.85 in    
Wind  
Wind Speed 12 mph ()    
Max Wind Speed 30 mph    
Max Gust Speed 36 mph    
Visibility 9.0 miles    
Events Rain    
T = Trace of Precipitation, MM = Missing Value Source: Averaged Metar Reports

Daily Weather History Graph

Daily Weather History Graph

Search for Another Location

Airport or City:

Trip Planner

Search our weather history database for the weather conditions in past years. The results will help you decide how hot, cold, wet, or windy it might be!

Date:

Astronomy

Jun. 16, 2013 Rise Set
Actual Time 1:38 AM ADT 12:33 AM ADT
Civil Twilight Sun does not rise Sun does not rise
Nautical Twilight Sun does not rise Sun does not rise
Astronomical Twilight Sun does not rise Sun does not rise
Moon 1:18 PM ADT (6/16) 12:41 AM ADT (6/16)
Length of Visible Light 24h 00m
Length of Day
22h 55m
Waxing Crescent, 49% of the Moon is Illuminated
Jun 16
Waxing Crescent
Jun 16
First Quarter
Jun 23
Full
Jun 30
Last Quarter
Jul 8
New

Hourly Weather History & Observations

Time (ADT) Temp. Windchill Dew Point Humidity Pressure Visibility Wind Dir Wind Speed Gust Speed Precip Events Conditions
12:00 AM 35 °F - - % 30.03 in 9 mi North 8.1 mph - - Rain Light Rain
12:00 AM 35.6 °F 29.2 °F - N/A% 30.03 in 9.0 mi North 8.1 mph - N/A Rain Light Rain
1:00 AM 33.8 °F 27.0 °F - N/A% 30.02 in 9.0 mi North 8.1 mph - N/A Rain Light Rain
1:45 AM 33.8 °F 26.4 °F - N/A% 29.85 in 9.0 mi North 9.2 mph - N/A   Unknown
2:00 AM 33.8 °F 26.4 °F - N/A% 30.01 in 9.0 mi North 9.2 mph - N/A   Unknown
3:00 AM 34 °F - - % 30.00 in 9 mi North 9.2 mph - -  
3:00 AM 33.8 °F 26.4 °F - N/A% 30.00 in 9.0 mi North 9.2 mph - N/A   Unknown
4:00 AM 33.8 °F 25.8 °F - N/A% 29.99 in 9.0 mi North 10.4 mph - N/A   Unknown
5:00 AM 32.0 °F 24.2 °F - N/A% 29.99 in 9.0 mi North 9.2 mph - N/A   Unknown
6:00 AM 34 °F - - % 29.97 in 9 mi North 10.4 mph - -  
6:00 AM 33.8 °F 25.3 °F - N/A% 29.97 in 9.0 mi North 11.5 mph - N/A   Unknown
7:00 AM 33.8 °F 24.8 °F - N/A% 29.95 in 9.0 mi North 12.7 mph - N/A   Unknown
8:00 AM 35.6 °F 28.0 °F - N/A% 29.95 in 9.0 mi North 10.4 mph - N/A   Unknown
9:00 AM 34 °F - - % 29.93 in 9 mi North 12.7 mph - -  
9:00 AM 33.8 °F 24.8 °F - N/A% 29.93 in 9.0 mi North 12.7 mph - N/A   Unknown
10:00 AM 33.8 °F 26.4 °F - N/A% 29.92 in 9.0 mi North 9.2 mph - N/A   Unknown
10:04 AM 35.6 °F 27.5 °F - N/A% 29.77 in 9.0 mi North 11.5 mph - N/A Rain Light Rain
11:00 AM 37.4 °F 31.4 °F - N/A% 29.90 in 9.0 mi North 8.1 mph - N/A Rain Light Rain
12:00 PM 39 °F - - % 29.87 in 9 mi North 11.5 mph - - Rain Light Rain
12:00 PM 39.2 °F 31.6 °F - N/A% 29.87 in 9.0 mi North 12.7 mph - N/A Rain Light Rain
1:00 PM 37.4 °F 28.5 °F - N/A% 29.86 in 9.0 mi North 15.0 mph - N/A Rain Light Rain
2:00 PM 37.4 °F 28.2 °F - N/A% 29.83 in 9.0 mi North 16.1 mph - N/A Rain Light Rain
3:00 PM 37 °F - - % 29.82 in 9 mi North 16.1 mph - -  
3:00 PM 37.4 °F 28.2 °F - N/A% 29.82 in 9.0 mi North 16.1 mph - N/A Rain Light Rain
4:00 PM 39.2 °F 29.6 °F - N/A% 29.79 in 9.0 mi North 19.6 mph - N/A Rain Light Rain
5:00 PM 39.2 °F 28.7 °F - N/A% 29.77 in 9.0 mi North 23.0 mph - N/A Rain Light Rain
5:01 PM 39.2 °F 28.7 °F - N/A% 29.62 in 9.0 mi North 23.0 mph - N/A   Unknown
6:00 PM 39 °F - - % 29.74 in 9 mi North 27.6 mph - -  
6:00 PM 39.2 °F 28.0 °F - N/A% 29.74 in 9.0 mi North 26.5 mph - N/A   Unknown
6:10 PM 39.2 °F 27.4 °F - N/A% 29.60 in 9.0 mi North 29.9 mph - N/A Rain Light Rain
7:00 PM 39.2 °F 28.5 °F - N/A% 29.73 in 9.0 mi North 24.2 mph - N/A Rain Light Rain
8:00 PM 39.2 °F 28.5 °F - N/A% 29.71 in 9.0 mi NNW 24.2 mph - N/A Rain Light Rain
9:00 PM 34 °F - - % 29.72 in 9 mi North 21.9 mph - -  
9:00 PM 33.8 °F 22.2 °F - N/A% 29.72 in 9.0 mi North 20.7 mph - N/A Rain Light Rain
10:00 PM 35.6 °F 24.0 °F - N/A% 29.69 in 9.0 mi North 23.0 mph - N/A Rain Light Rain
11:00 PM 37.4 °F 25.2 °F - N/A% 29.66 in 9.0 mi North 28.8 mph 35.7 mph N/A Rain Light Rain